Freeport, IL

9:28 PM CDT on June 28, 2017 (GMT -0500)
Albertus

Weather History for KFEP - October, 2012

Change the Weather History Date:

Wednesday, October 17, 2012

  Actual Average Record
Temperature  
Mean Temperature 60 °F -  
Max Temperature 67 °F 60 °F 81 °F (2016)
Min Temperature 51 °F 37 °F 25 °F (1992)
Degree Days  
Heating Degree Days 5    
Growing Degree Days 10 (Base 50)    
Moisture  
Dew Point 52 °F    
Average Humidity 79    
Maximum Humidity 93    
Minimum Humidity 61    
Precipitation  
Precipitation 0.50 in - - ()
Sea Level Pressure  
Sea Level Pressure 29.43 in    
Wind  
Wind Speed 13 mph (South)    
Max Wind Speed 21 mph    
Max Gust Speed 28 mph    
Visibility 9 miles    
Events Rain , Thunderstorm    
Averages and records for this station are not official NWS values.
T = Trace of Precipitation, MM = Missing Value Source: NWS Daily Summary

Daily Weather History Graph

Daily Weather History Graph

Search for Another Location

Airport or City:

Trip Planner

Search our weather history database for the weather conditions in past years. The results will help you decide how hot, cold, wet, or windy it might be!

Date:

Astronomy

Oct. 17, 2012 Rise Set
Actual Time 7:13 AM CDT 6:12 PM CDT
Civil Twilight 6:45 AM CDT 6:40 PM CDT
Nautical Twilight 6:13 AM CDT 7:13 PM CDT
Astronomical Twilight 5:40 AM CDT 7:45 PM CDT
Moon 9:51 AM CDT (10/17) 7:44 PM CDT (10/17)
Length of Visible Light 11h 55m
Length of Day
10h 58m
Waxing Crescent, 7% of the Moon is Illuminated
Oct 17
Waxing Crescent
Oct 21
First Quarter
Oct 29
Full
Nov 6
Last Quarter
Nov 13
New

Hourly Weather History & Observations

Time (CDT) Temp. Dew Point Humidity Pressure Visibility Wind Dir Wind Speed Gust Speed Precip Events Conditions
12:15 AM 63.7 °F 53.1 °F 68% 29.51 in 10.0 mi South 13.8 mph - N/A   Clear
12:35 AM 62.2 °F 51.8 °F 69% 29.51 in 10.0 mi South 13.8 mph - N/A   Clear
12:55 AM 61.7 °F 51.4 °F 69% 29.51 in 10.0 mi South 15.0 mph - N/A   Clear
1:15 AM 61.7 °F 51.3 °F 69% 29.51 in 10.0 mi South 16.1 mph 20.7 mph N/A   Clear
1:35 AM 61.7 °F 51.1 °F 68% 29.51 in 10.0 mi South 12.7 mph - N/A   Clear
1:55 AM 61.7 °F 51.1 °F 68% 29.51 in 10.0 mi South 13.8 mph 18.4 mph N/A   Clear
2:15 AM 60.4 °F 50.5 °F 70% 29.51 in 10.0 mi South 12.7 mph - N/A   Clear
2:35 AM 59.5 °F 49.6 °F 70% 29.51 in 10.0 mi South 12.7 mph - N/A   Clear
2:55 AM 59.0 °F 49.6 °F 71% 29.50 in 10.0 mi South 10.4 mph - N/A   Clear
3:15 AM 59.0 °F 49.5 °F 71% 29.50 in 10.0 mi South 13.8 mph - N/A   Clear
3:35 AM 59.0 °F 49.1 °F 70% 29.50 in 10.0 mi South 15.0 mph 19.6 mph N/A   Clear
3:55 AM 59.0 °F 48.7 °F 69% 29.49 in 10.0 mi South 13.8 mph 19.6 mph N/A   Clear
4:15 AM 59.0 °F 49.3 °F 70% 29.49 in 10.0 mi South 13.8 mph - N/A   Clear
4:35 AM 58.5 °F 50.0 °F 73% 29.50 in 10.0 mi South 11.5 mph - N/A   Clear
4:55 AM 56.5 °F 49.5 °F 77% 29.50 in 10.0 mi South 11.5 mph - N/A   Clear
5:15 AM 56.5 °F 49.6 °F 78% 29.50 in 10.0 mi SSE 10.4 mph - N/A   Clear
5:35 AM 55.9 °F 48.9 °F 77% 29.49 in 10.0 mi SSE 11.5 mph - N/A   Clear
5:55 AM 56.5 °F 49.3 °F 77% 29.49 in 10.0 mi South 9.2 mph - N/A   Clear
6:15 AM 55.8 °F 48.6 °F 77% 29.48 in 10.0 mi South 12.7 mph - N/A   Clear
6:35 AM 55.2 °F 48.4 °F 78% 29.48 in 10.0 mi South 12.7 mph - N/A   Clear
6:55 AM 55.4 °F 48.4 °F 77% 29.48 in 10.0 mi SSE 12.7 mph - N/A   Clear
7:15 AM 55.0 °F 48.4 °F 78% 29.48 in 10.0 mi SSE 12.7 mph - N/A   Clear
7:35 AM 54.1 °F 48.2 °F 80% 29.49 in 10.0 mi SSE 11.5 mph - N/A   Clear
7:55 AM 57.2 °F 50.0 °F 77% 29.48 in 10.0 mi South 15.0 mph - N/A   Clear
8:15 AM 56.5 °F 49.6 °F 78% 29.47 in 10.0 mi SSE 13.8 mph - N/A   Clear
8:35 AM 56.5 °F 49.5 °F 77% 29.47 in 10.0 mi SSE 16.1 mph - N/A   Scattered Clouds
8:55 AM 59.0 °F 50.9 °F 74% 29.47 in 10.0 mi SSE 18.4 mph 21.9 mph N/A   Scattered Clouds
9:15 AM 59.0 °F 49.5 °F 71% 29.47 in 10.0 mi SSE 17.3 mph 24.2 mph N/A   Clear
9:35 AM 61.0 °F 50.9 °F 69% 29.47 in 10.0 mi SSE 19.6 mph 24.2 mph N/A   Scattered Clouds
9:55 AM 62.6 °F 50.0 °F 63% 29.47 in 10.0 mi South 16.1 mph 25.3 mph N/A   Scattered Clouds
10:15 AM 62.4 °F 50.7 °F 66% 29.46 in 10.0 mi SSE 19.6 mph 24.2 mph N/A   Clear
10:35 AM 63.7 °F 52.0 °F 66% 29.45 in 10.0 mi South 17.3 mph 24.2 mph N/A   Clear
10:55 AM 64.0 °F 51.8 °F 64% 29.44 in 10.0 mi SSE 18.4 mph 25.3 mph N/A   Scattered Clouds
11:15 AM 65.1 °F 52.0 °F 62% 29.45 in 10.0 mi South 20.7 mph 27.6 mph N/A   Mostly Cloudy
11:35 AM 65.8 °F 52.7 °F 62% 29.44 in 10.0 mi South 17.3 mph - N/A   Mostly Cloudy
11:55 AM 66.7 °F 52.7 °F 61% 29.44 in 10.0 mi South 19.6 mph 25.3 mph N/A   Scattered Clouds
12:15 PM 66.9 °F 53.4 °F 62% 29.44 in 10.0 mi South 16.1 mph 23.0 mph N/A Thunderstorm Clear
12:35 PM 66.6 °F 53.4 °F 63% 29.44 in 10.0 mi South 16.1 mph 23.0 mph N/A   Scattered Clouds
12:55 PM 65.3 °F 53.1 °F 65% 29.44 in 10.0 mi South 15.0 mph 21.9 mph N/A   Mostly Cloudy
1:15 PM 64.4 °F 53.6 °F 68% 29.44 in 10.0 mi South 16.1 mph 19.6 mph N/A Rain Rain
1:35 PM 61.2 °F 56.7 °F 85% 29.45 in 5.0 mi SSW 15.0 mph - N/A Rain Rain
1:55 PM 60.8 °F 56.8 °F 87% 29.44 in 4.0 mi South 13.8 mph - 0.02 in Rain Rain
2:15 PM 61.7 °F 58.1 °F 88% 29.42 in 10.0 mi South 9.2 mph 12.7 mph N/A   Mostly Cloudy
2:35 PM 61.7 °F 57.6 °F 86% 29.42 in 10.0 mi South 15.0 mph 19.6 mph N/A   Mostly Cloudy
2:55 PM 61.7 °F 57.6 °F 86% 29.41 in 10.0 mi South 10.4 mph - N/A   Overcast
3:15 PM 61.7 °F 57.7 °F 87% 29.41 in 7.0 mi South 11.5 mph 16.1 mph N/A   Overcast
3:35 PM 61.7 °F 57.7 °F 87% 29.39 in 10.0 mi SSE 9.2 mph - N/A   Overcast
3:55 PM 61.7 °F 57.6 °F 86% 29.38 in 10.0 mi SSE 10.4 mph - N/A   Overcast
4:15 PM 61.7 °F 57.6 °F 86% 29.39 in 10.0 mi SSE 11.5 mph - N/A   Overcast
4:35 PM 61.7 °F 57.9 °F 87% 29.40 in 10.0 mi South 13.8 mph - N/A   Drizzle
4:55 PM 59.2 °F 56.5 °F 91% 29.38 in 3.0 mi SSE 5.8 mph - 0.05 in Rain Rain
5:15 PM 59.0 °F 56.7 °F 92% 29.36 in 5.0 mi South 4.6 mph - 0.01 in Rain Light Rain
5:35 PM 59.0 °F 56.7 °F 92% 29.37 in 7.0 mi SSE 10.4 mph - 0.02 in   Overcast
5:55 PM 59.0 °F 56.7 °F 92% 29.36 in 7.0 mi SSE 9.2 mph - 0.02 in   Overcast
6:15 PM 59.0 °F 56.7 °F 92% 29.35 in 7.0 mi SSE 8.1 mph - N/A   Overcast
6:35 PM 59.0 °F 56.7 °F 92% 29.35 in 7.0 mi South 8.1 mph - N/A   Overcast
6:55 PM 59.0 °F 56.8 °F 93% 29.35 in 7.0 mi SSW 9.2 mph - N/A Rain Light Rain
7:15 PM 59.0 °F 56.8 °F 93% 29.36 in 2.5 mi SSW 11.5 mph 17.3 mph 0.07 in Rain Rain
7:35 PM 59.0 °F 56.8 °F 93% 29.37 in 3.0 mi WSW 11.5 mph - 0.14 in Rain Rain
7:55 PM 54.0 °F 51.3 °F 91% 29.37 in 5.0 mi West 15.0 mph 27.6 mph 0.24 in Rain Heavy Rain
8:15 PM 54.0 °F 51.8 °F 92% 29.38 in 7.0 mi West 11.5 mph 17.3 mph 0.04 in Rain Rain
8:35 PM 54.0 °F 51.8 °F 92% 29.37 in 7.0 mi West 11.5 mph - 0.07 in Rain Rain
8:55 PM 54.0 °F 51.8 °F 92% 29.34 in 7.0 mi West 9.2 mph - 0.10 in Rain Light Rain
9:15 PM 54.0 °F 51.8 °F 92% 29.35 in 7.0 mi WSW 9.2 mph - 0.03 in Rain Rain
9:35 PM 54.0 °F 51.8 °F 92% 29.34 in 7.0 mi West 10.4 mph - 0.06 in Rain Light Rain
9:55 PM 54.0 °F 51.3 °F 91% 29.35 in 10.0 mi WSW 6.9 mph - 0.07 in   Light Drizzle
10:15 PM 54.0 °F 51.3 °F 91% 29.34 in 10.0 mi WSW 4.6 mph - N/A   Overcast
10:35 PM 54.0 °F 51.3 °F 91% 29.35 in 10.0 mi SW 6.9 mph - N/A   Overcast
10:55 PM 54.0 °F 51.1 °F 90% 29.37 in 10.0 mi SW 8.1 mph - N/A   Overcast
11:15 PM 54.0 °F 50.7 °F 89% 29.37 in 10.0 mi SW 9.2 mph - N/A   Overcast
11:35 PM 54.0 °F 50.0 °F 86% 29.36 in 10.0 mi SW 9.2 mph - N/A   Overcast
11:55 PM 51.4 °F 47.3 °F 86% 29.35 in 10.0 mi SW 11.5 mph - N/A   Overcast